Weather History for Jackson, MN

Change the Weather History Date:

Wednesday, November 21, 2012

  Actual Average Record
Temperature  
Mean Temperature 56 °F -  
Max Temperature 69 °F 36 °F 69 °F (2012)
Min Temperature 44 °F 21 °F 3 °F (2000)
Degree Days  
Heating Degree Days 8    
Growing Degree Days 6 (Base 50)    
Moisture  
Dew Point 36 °F    
Average Humidity 51    
Maximum Humidity 66    
Minimum Humidity 25    
Precipitation  
Precipitation 0.00 in - - ()
Sea Level Pressure  
Sea Level Pressure 29.89 in    
Wind  
Wind Speed 14 mph (SSW)    
Max Wind Speed 23 mph    
Max Gust Speed 29 mph    
Visibility 10 miles    
Events      
Averages and records for this station are not official NWS values.
T = Trace of Precipitation, MM = Missing Value Source: NWS Daily Summary

Daily Weather History Graph

Daily Weather History Graph

Search for Another Location

Airport:

Trip Planner

Search our weather history database for the weather conditions in past years. The results will help you decide how hot, cold, wet, or windy it might be!

Date:

Astronomy

Nov. 21, 2012 Rise Set
Actual Time 7:22 AM CST 4:49 PM CST
Civil Twilight 6:50 AM CST 5:20 PM CST
Nautical Twilight 6:15 AM CST 5:55 PM CST
Astronomical Twilight 5:41 AM CST 6:30 PM CST
Moon 1:16 PM CST (11/21) 12:30 AM CST (11/21)
Length of Visible Light 10h 29m
Length of Day
9h 26m
First Quarter, 62% of the Moon is Illuminated
Nov 21
First Quarter
Nov 28
Full
Dec 6
Last Quarter
Dec 13
New
Dec 19
First Quarter

Hourly Weather History & Observations

Time (CST) Temp. Windchill Dew Point Humidity Pressure Visibility Wind Dir Wind Speed Gust Speed Precip Events Conditions
12:13 AM 44.6 °F 38.4 °F 32.0 °F 61% 30.03 in 10.0 mi South 12.7 mph - N/A   Clear
12:33 AM 44.6 °F 38.4 °F 32.0 °F 61% 30.03 in 10.0 mi South 12.7 mph - N/A   Clear
12:53 AM 44.6 °F 38.8 °F 32.0 °F 61% 30.03 in 10.0 mi South 11.5 mph - N/A   Clear
1:13 AM 44.6 °F 38.8 °F 32.0 °F 61% 30.02 in 10.0 mi South 11.5 mph - N/A   Clear
1:33 AM 44.6 °F 38.8 °F 32.0 °F 61% 30.01 in 10.0 mi South 11.5 mph - N/A   Clear
1:53 AM 44.6 °F 38.8 °F 32.0 °F 61% 30.01 in 10.0 mi South 11.5 mph - N/A   Clear
2:13 AM 44.6 °F 38.8 °F 32.0 °F 61% 30.01 in 10.0 mi South 11.5 mph - N/A   Clear
2:33 AM 44.6 °F 38.4 °F 32.0 °F 61% 30.01 in 10.0 mi South 12.7 mph - N/A   Clear
2:53 AM 46.4 °F 40.4 °F 33.8 °F 62% 30.01 in 10.0 mi SSW 13.8 mph - N/A   Clear
3:13 AM 46.4 °F 39.8 °F 33.8 °F 62% 30.00 in 10.0 mi SSW 16.1 mph 20.7 mph N/A   Clear
3:33 AM 46.4 °F 39.8 °F 33.8 °F 62% 30.00 in 10.0 mi SSW 16.1 mph 21.9 mph N/A   Clear
3:53 AM 46.4 °F 39.8 °F 33.8 °F 62% 29.99 in 10.0 mi SSW 16.1 mph - N/A   Clear
4:13 AM 46.4 °F 39.5 °F 33.8 °F 62% 29.99 in 10.0 mi SSW 17.3 mph 21.9 mph N/A   Clear
4:33 AM 46.4 °F 39.8 °F 33.8 °F 62% 29.98 in 10.0 mi SSW 16.1 mph - N/A   Clear
4:53 AM 44.6 °F 37.8 °F 33.8 °F 66% 29.98 in 10.0 mi SSW 15.0 mph - N/A   Clear
5:13 AM 44.6 °F 37.2 °F 33.8 °F 66% 29.98 in 10.0 mi SSW 17.3 mph - N/A   Clear
5:33 AM 46.4 °F 40.1 °F 33.8 °F 62% 29.98 in 10.0 mi SSW 15.0 mph - N/A   Clear
5:53 AM 46.4 °F 39.8 °F 33.8 °F 62% 29.98 in 10.0 mi SSW 16.1 mph 21.9 mph N/A   Clear
6:13 AM 46.4 °F 40.4 °F 33.8 °F 62% 29.97 in 10.0 mi SSW 13.8 mph - N/A   Clear
6:33 AM 44.6 °F 37.4 °F 33.8 °F 66% 29.97 in 10.0 mi SSW 16.1 mph 20.7 mph N/A   Clear
6:53 AM 44.6 °F 38.1 °F 33.8 °F 66% 29.97 in 10.0 mi SSW 13.8 mph 18.4 mph N/A   Clear
7:14 AM 44.6 °F 38.1 °F 33.8 °F 66% 29.97 in 10.0 mi SSW 13.8 mph - N/A   Clear
7:33 AM 46.4 °F 40.4 °F 35.6 °F 66% 29.97 in 10.0 mi SSW 13.8 mph - N/A   Clear
7:53 AM 46.4 °F 40.4 °F 35.6 °F 66% 29.97 in 10.0 mi SSW 13.8 mph - N/A   Clear
8:14 AM 46.4 °F 40.1 °F 35.6 °F 66% 29.97 in 10.0 mi SSW 15.0 mph 18.4 mph N/A   Clear
8:33 AM 46.4 °F 40.1 °F 35.6 °F 66% 29.96 in 10.0 mi SSW 15.0 mph 19.6 mph N/A   Clear
8:53 AM 46.4 °F 40.1 °F 35.6 °F 66% 29.96 in 10.0 mi SSW 15.0 mph - N/A   Clear
9:14 AM 50.0 °F - 35.6 °F 58% 29.96 in 10.0 mi SSW 13.8 mph 20.7 mph N/A   Clear
9:33 AM 51.8 °F - 35.6 °F 54% 29.96 in 10.0 mi SSW 17.3 mph - N/A   Clear
9:53 AM 51.8 °F - 35.6 °F 54% 29.95 in 10.0 mi SSW 17.3 mph - N/A   Clear
10:14 AM 53.6 °F - 35.6 °F 51% 29.95 in 10.0 mi SSW 12.7 mph - N/A   Clear
10:33 AM 55.4 °F - 35.6 °F 47% 29.96 in 10.0 mi SW 16.1 mph 21.9 mph N/A   Clear
10:53 AM 57.2 °F - 35.6 °F 44% 29.95 in 10.0 mi SSW 16.1 mph 23.0 mph N/A   Clear
11:14 AM 59.0 °F - 35.6 °F 42% 29.95 in 10.0 mi SSW 17.3 mph 23.0 mph N/A   Clear
11:33 AM 60.8 °F - 33.8 °F 36% 29.93 in 10.0 mi SW 17.3 mph 24.2 mph N/A   Clear
11:53 AM 62.6 °F - 32.0 °F 32% 29.92 in 10.0 mi SSW 23.0 mph - N/A   Clear
12:14 PM 62.6 °F - 32.0 °F 32% 29.91 in 10.0 mi SSW 16.1 mph 24.2 mph N/A   Clear
12:33 PM 64.4 °F - 32.0 °F 30% 29.89 in 10.0 mi SSW 15.0 mph 24.2 mph N/A   Clear
12:53 PM 66.2 °F - 32.0 °F 28% 29.88 in 10.0 mi SSW 18.4 mph 21.9 mph N/A   Clear
1:14 PM 68.0 °F - 32.0 °F 26% 29.88 in 10.0 mi SSW 17.3 mph 25.3 mph N/A   Clear
1:33 PM 69.8 °F - 32.0 °F 25% 29.87 in 10.0 mi SSW 16.1 mph 26.5 mph N/A   Clear
1:53 PM 68.0 °F - 32.0 °F 26% 29.86 in 10.0 mi SSW 15.0 mph 26.5 mph N/A   Clear
2:13 PM 66.2 °F - 32.0 °F 28% 29.85 in 10.0 mi South 17.3 mph 23.0 mph N/A   Clear
2:33 PM 68.0 °F - 33.8 °F 28% 29.85 in 10.0 mi SSW 17.3 mph - N/A   Clear
2:54 PM 68.0 °F - 33.8 °F 28% 29.84 in 10.0 mi SSW 17.3 mph 23.0 mph N/A   Clear
3:13 PM 68.0 °F - 33.8 °F 28% 29.83 in 10.0 mi SSW 19.6 mph 28.8 mph N/A   Clear
3:33 PM 66.2 °F - 33.8 °F 30% 29.83 in 10.0 mi SSW 17.3 mph 26.5 mph N/A   Clear
3:59 PM 64.4 °F - 35.6 °F 34% 29.82 in 10.0 mi South 18.4 mph 21.9 mph N/A   Clear
4:13 PM 64.4 °F - 37.4 °F 37% 29.82 in 10.0 mi SSW 15.0 mph 20.7 mph N/A   Clear
4:33 PM 64.4 °F - 37.4 °F 37% 29.81 in 10.0 mi South 12.7 mph - N/A   Clear
4:54 PM 64.4 °F - 37.4 °F 37% 29.81 in 10.0 mi South 15.0 mph 20.7 mph N/A   Clear
5:13 PM 62.6 °F - 37.4 °F 39% 29.81 in 10.0 mi South 11.5 mph - N/A   Clear
5:33 PM 60.8 °F - 37.4 °F 42% 29.81 in 10.0 mi South 11.5 mph - N/A   Clear
5:53 PM 60.8 °F - 37.4 °F 42% 29.81 in 10.0 mi South 10.4 mph - N/A   Clear
6:13 PM 59.0 °F - 39.2 °F 48% 29.80 in 10.0 mi South 16.1 mph - N/A   Clear
6:33 PM 59.0 °F - 39.2 °F 48% 29.80 in 10.0 mi South 16.1 mph 20.7 mph N/A   Clear
6:54 PM 59.0 °F - 39.2 °F 48% 29.79 in 10.0 mi South 12.7 mph - N/A   Clear
7:13 PM 59.0 °F - 41.0 °F 51% 29.79 in 10.0 mi South 12.7 mph - N/A   Clear
7:33 PM 57.2 °F - 41.0 °F 55% 29.78 in 10.0 mi South 13.8 mph 20.7 mph N/A   Clear
7:53 PM 57.2 °F - 41.0 °F 55% 29.78 in 10.0 mi South 15.0 mph - N/A   Clear
8:13 PM 57.2 °F - 39.2 °F 51% 29.77 in 10.0 mi South 15.0 mph - N/A   Clear
8:33 PM 55.4 °F - 39.2 °F 54% 29.76 in 10.0 mi South 12.7 mph - N/A   Clear
8:53 PM 55.4 °F - 39.2 °F 54% 29.76 in 10.0 mi South 16.1 mph - N/A   Clear
9:13 PM 55.4 °F - 39.2 °F 54% 29.75 in 10.0 mi South 17.3 mph 21.9 mph N/A   Clear
9:33 PM 55.4 °F - 41.0 °F 58% 29.75 in 10.0 mi South 16.1 mph - N/A   Clear
9:53 PM 55.4 °F - 41.0 °F 58% 29.74 in 10.0 mi South 13.8 mph 20.7 mph N/A   Clear
10:13 PM 55.4 °F - 41.0 °F 58% 29.74 in 10.0 mi South 15.0 mph - N/A   Clear
10:33 PM 55.4 °F - 41.0 °F 58% 29.73 in 10.0 mi South 15.0 mph 21.9 mph N/A   Clear
10:53 PM 57.2 °F - 41.0 °F 55% 29.73 in 10.0 mi SSW 17.3 mph - N/A   Clear
11:13 PM 57.2 °F - 42.8 °F 59% 29.72 in 10.0 mi SSW 16.1 mph 23.0 mph N/A   Clear
11:33 PM 55.4 °F - 42.8 °F 63% 29.72 in 10.0 mi SSW 18.4 mph - N/A   Clear
11:53 PM 55.4 °F - 42.8 °F 63% 29.71 in 10.0 mi SSW 19.6 mph 23.0 mph N/A   Clear